STARLINK-1817, 46715

Orbit data source: Space-Track

STARLINK-1817, 46715 is a payload satellite owned by SpaceX/Seattle (US) in LEO that was launched on Sun, 18 Oct 2020 UTC via an FALCON 9 launch vehicle from the Air Force Eastern Test Range (AFETR). Payload-class satellites include a variety of spacecraft equipped with specific instruments for various scientific and technological missions. These include communications satellites like Starlink; space stations such as the ISS; scientific satellites like the Hubble; Earth observation satellites from companies like Planet Labs, Umbra, and HawkEye 360; GPS; miniature CubeSats for education and research; and military/defense satellites.

Loading next visibility...
Identifier
46715, 2020-073AX
Orbit
LEO
Country
Flag of USUS
Related business
Manufacturer
SpaceX/Seattle
Mission
Partially operational Commercial Communications
Bus & Motor
STARLINK, Unknown motor
Mass
260 kg wet, ~248 kg dry
Launch date (UTC)
2020-10-18 (6 years ago)
Launch vehicle
FALCON 9
Launch site
Air Force Eastern Test Range (AFETR)
Object type
Payload
Rocket body
Debris
Shape & HBR
Box + 1 Pan, 10.1 m
Radar Cross Section
13.562 m², Large (>1 m²)

Expand to show TLE details & history
Last TLE update: 5 hours ago

TLE from 5 hours ago
0 STARLINK-1817
1 46715U 20073AX  26119.28352667  .00095341  00000-0  72458-3 0  9994
2 46715  53.0452 328.2974 0003104  97.4786 262.6584 15.71555982305401
Epoch: 2026-04-29T06:48Z
TLE epoch observation values (Epoch: 2026-04-29T06:48:16.704Z)
Latitude
-0.00001°
Longitude
8.98109°
Altitude
355.62 km
Speed
7.697 km/s
True Right ascension
21h 53m 11s
True Declination
0° 00' 00"
Sunlit
Object was in daylight at epoch
Visualization orbit readout
Latitude
Unknown
Longitude
Unknown
Altitude
Unknown
Speed
Unknown
Apparent Right ascension
Unknown
Apparent Declination
Unknown
Sunlit
N/A
Visualization observer readout
Local Sidereal Time
19:05:16
Azimuth
Unknown
Elevation
Unknown
Doppler factor
Unknown
Orbital elements
Apogee altitude
356.819 km
Perigee altitude
352.639 km
Semi-major axis
6,732.866 km
Eccentricity
0.00031
Inclination
53.0452°
RAAN
328.2974°
Arg. of periapsis
97.4786°
True anomaly
262.62312°
Mean anomaly
262.6584°
Eccentric anomaly
262.64076°
Mean motion
3.92865 °/min
Orbital period
91.63 mins
BSTAR
0.00072458
Loading maneuver chart data...
Computing Atmospheric mass density...
Loading historical data...
Loading historical data...
Loading historical data...
Loading historical data...
Loading historical data...
Loading historical data...
Loading historical data...

Documentation

Showing up to 5 results
|